Home   Weather   Pocatello   Past weeks

Flag for USA Past Weather in Pocatello, Idaho, USA — Yesterday and Last 2 Weeks

Now
22 °F

Light snow. Ice fog.


Feels Like: 14 °F
Forecast: 18 / 25 °F
Wind: 6 mph from Southwest

Location: Pocatello Regional Airport

Current Time: Jan 24, 2017 at 6:45:38 pm

Latest Report: Jan 24, 2017 at 5:53 pm


Visibility: 3 mi

Pressure: 30.02 "Hg (25.24 "Hg at 1357m altitude)

Humidity: 92%

Dew Point: 20 °F

Location of PocatelloLocation

Past Weather in Pocatello — Graph

°F

Pocatello Temperature Yesterday

Maximum temperature yesterday: 34 °F (at 1:53 pm)
Minimum temperature yesterday: 26 °F (at 10:05 pm)
Average temperature yesterday: 30 °F

High & Low Weather Summary for the Past Weeks

 TemperatureHumidityPressure
High40 °F (Jan 11, 4:53 am)100% (Jan 23, 9:26 am)30.71 "Hg (Jan 23, 9:26 am)
Low-3 °F (Jan 17, 12:53 am)52% (Jan 22, 10:53 am)29.28 "Hg (Jan 21, 2:02 am)
Average21 °F85%29.99 "Hg
* Reported Jan 9 4:53 pm — Jan 24 4:53 pm, Pocatello, Weather by CustomWeather, © 2017

Note: Actual official high and low records may vary slightly from our data, if they occured in-between our weather recording intervals... More about our weather records

Advertising

Pocatello Weather History for the Previous 24 Hours

Scroll right to see more
 ConditionsComfort  
Time TempWeatherWind HumidityBarometerVisibility
4:53 pm
Tue, Jan 24
23 °FLight snow. Ice fog.7 mph92%29.98 "Hg4 mi
3:53 pm24 °FCloudy.7 mph91%29.96 "Hg7 mi
3:14 pm24 °FLight snow. Ice fog.9 mph91%29.85 "Hg3 mi
3:00 pm25 °FLight snow. Ice fog.9 mph88%29.84 "Hg5 mi
2:53 pm25 °FLight snow. Ice fog.10 mph88%29.93 "Hg5 mi
2:18 pm26 °FLight snow. Ice fog.10 mph88%29.83 "Hg2 mi
2:02 pm26 °FLight snow. Ice fog.10 mph88%29.82 "Hg2 mi
1:53 pm26 °FLight snow. Ice fog.9 mph88%29.91 "Hg3 mi
1:21 pm26 °FLight snow. Ice fog.9 mph88%29.82 "Hg2 mi
1:03 pm26 °FLight snow. Ice fog.9 mph88%29.82 "Hg1 mi
12:53 pm25 °FLight snow. Ice fog.9 mph92%29.90 "Hg1 mi
12:41 pm25 °FLight snow. Ice fog.8 mph92%29.82 "Hg3 mi
12:31 pm25 °FLight snow. Ice fog.9 mph96%29.82 "Hg2 mi
12:07 pm25 °FLight snow. Ice fog.9 mph92%29.82 "Hg1 mi
11:53 am25 °FLight snow. Ice fog.9 mph88%29.90 "Hg1 mi
11:36 am25 °FLight snow. Ice fog.8 mph92%29.81 "Hg1 mi
10:53 am24 °FLight snow. Ice fog.9 mph96%29.90 "Hg1 mi
10:34 am24 °FLight snow. Ice fog.8 mph91%29.80 "Hg1 mi
9:53 am24 °FLight snow. Ice fog.8 mph91%29.87 "Hg2 mi
8:53 am24 °FLight snow. Ice fog.8 mph96%29.84 "Hg2 mi
8:33 am24 °FLight snow. Ice fog.8 mph96%29.75 "Hg2 mi
7:53 am24 °FLight snow. Ice fog.8 mph91%29.82 "Hg1 mi
6:53 am24 °FLight snow. Ice fog.9 mph96%29.80 "Hg1 mi
5:53 am24 °FLight snow. Ice fog.12 mph91%29.78 "Hg2 mi
4:53 am24 °FLight snow. Ice fog.10 mph91%29.75 "Hg1 mi
3:53 am24 °FLight snow. Ice fog.13 mph91%29.73 "Hg1 mi
2:53 am24 °FLight snow. Ice fog.16 mph96%29.71 "Hg1 mi
1:53 am24 °FLight snow. Ice fog.17 mph91%29.69 "Hg1 mi
1:41 am24 °FLight snow. Ice fog.16 mph96%29.62 "Hg2 mi
1:24 am25 °FLight snow. Ice fog.17 mph92%29.62 "Hg2 mi
1:19 am25 °FLight snow. Ice fog.20 mph92%29.62 "Hg2 mi
1:03 am25 °FLight snow. Ice fog.17 mph92%29.62 "Hg2 mi
12:35 am25 °FLight snow. Ice fog.22 mph92%29.62 "Hg2 mi
11:53 pm
Mon, Jan 23
26 °FLight snow. Ice fog.18 mph92%29.66 "Hg1 mi
11:25 pm26 °FLight snow. Ice fog.18 mph96%29.60 "Hg1 mi
11:06 pm27 °FLight snow. Ice fog.16 mph92%29.60 "Hg1 mi
10:53 pm26 °FLight snow. Ice fog.13 mph96%29.66 "Hg1 mi
10:35 pm26 °FLight snow. Ice fog.14 mph96%29.59 "Hg1 mi
10:16 pm26 °FLight snow. Ice fog.15 mph96%29.59 "Hg1 mi
10:05 pm26 °FLight snow. Ice fog.18 mph92%29.59 "Hg1 mi
8:53 pm27 °FLight snow. Ice fog.20 mph96%29.63 "Hg1 mi
8:00 pm27 °FLight snow. Ice fog.20 mph96%29.55 "Hg1 mi
7:28 pm27 °FLight snow. Ice fog.17 mph96%29.55 "Hg1 mi
6:53 pm27 °FLight snow. Ice fog.20 mph96%29.59 "Hg1 mi
Weather by CustomWeather, © 2017

See weather overviewHow to use our weather pages